Voltar ao catálogo

STARLINK-35967

AtivoComunicaçõesVLEO
NORAD 66634·PAYLOAD·🇺🇸 United States

Lançado Nov 23, 2025 de Vandenberg Space Force Base

Loading…

Próximas Passagens (próximas 24 horas)

TLE

AtualizadoSource: CelesTrak SupGP

Época: Sep 14, 2026, 21:19 UTC

1 66634C 25271T   26257.88868056 -.00012852  00000+0 -37991-3 0  2571
2 66634  53.1597 336.0993 0001142  85.4758 314.1838 15.34382025    17

Acompanhe STARLINK-35967 em tempo real com AllMySat

Download on the App Store